Location: Lafig�re
(44.4503°N, 4.0357°E)
Time: 06:06:25
(UTC+00:00)

Transit 2A Rocket - Pass Details

Date: 27 June 2021
Orbit: 590 x 913 km, 66.7° (Epoch: 26 July)

Event Time Altitude Azimuth Distance (km) Brightness Sun altitude
Exits shadow 00:03:25 - 266° (W) 2,344 7.4 -22.1°
Reaches altitude 10° 00:04:49 10° 278° (W) 1,946 7.1 -22.1°
Maximum altitude 00:07:46 18° 321° (NW) 1,546 7.1 -22.1°
Drops below altitude 10° 00:10:49 10° 3° (N) 2,028 8.4 -22.0°
Sets 00:13:53 0° 23° (NNE) 2,997 9.4 -21.9°
